Location: Larcan
(43.1759°N, 0.7222°E)
Time: 10:50:50
(UTC+00:00)

Daily predictions for brighter satellites

Satellite Brightness Start Highest point End
(mag) Time Altitude Azimuth Time Altitude Azimuth Time Altitude Azimuth
SL-16 R/B 2.6 18:52:10 10° SSW 18:57:48 71° WNW 19:03:29 10° NNE
Terra 3.6 18:57:10 10° E 18:59:47 15° ENE 19:02:26 10° NNE
Atlas Centaur 2 4.0 18:56:22 10° SW 19:00:15 19° S 19:04:42 10° SE
Meteor 1-22 Rocket 4.3 18:57:10 10° S 19:02:39 64° E 19:08:25 10° NNE
Cosmos 1898 Rocket 3.9 18:58:21 10° S 19:03:15 41° ESE 19:08:08 10° NE
CZ-4 R/B 2.6 19:01:24 10° ESE 19:04:24 22° ENE 19:07:24 10° NNE
PSLV R/B 3.8 19:01:08 10° S 19:05:08 70° WSW 19:09:13 10° NNW
Resurs 01 Rocket 2.1 19:01:49 10° S 19:06:10 65° W 19:10:32 10° NNW
Cosmos 2333 4.2 19:07:05 10° S 19:12:36 65° ESE 19:18:09 10° NNE
Cosmos 372 Rocket 4.0 19:08:51 10° S 19:14:01 71° ESE 19:19:14 10° NNE
Tiangong -0.5 19:11:54 10° W 19:14:36 26° SSW 19:17:17 10° SE
Meteor 1-24 Rocket 3.8 19:09:56 10° N 19:15:20 59° ENE 19:20:53 10° SSE
Cosmos 1538 Rocket 4.1 19:10:21 10° NNW 19:15:27 59° ENE 19:20:31 10° SSE
CENTAUR R/B 3.9 19:09:07 10° NW 19:17:34 63° WSW 19:26:54 10° SSE
Cosmos 1844 4.2 19:11:54 10° NNW 19:17:38 66° WSW 19:23:21 10° S
Cosmos 2219 Rocket 2.3 19:13:04 10° S 19:18:29 54° ESE 19:23:55 10° NNE
SPOT 5 2.9 19:14:57 10° SSE 19:19:39 55° ENE 19:24:08 10° N
Cosmos 2074 Rocket 4.0 19:15:45 10° S 19:21:53 69° E 19:28:06 10° NNE
CZ-4B R/B 4.1 19:18:40 10° SE 19:22:02 41° ENE 19:25:31 10° N
Meteor 1-31 Rocket 3.0 19:21:21 10° SE 19:24:40 42° ENE 19:28:01 10° N
Cosmos 1937 Rocket 3.7 19:19:43 10° S 19:24:46 48° ESE 19:29:50 10° NNE
COSMOS 2428 3.7 19:31:29 10° SSE 19:35:59 24° ESE 19:40:30 10° NE
USA 234 3.7 19:30:10 10° NE 19:36:40 67° NW 19:43:08 10° WSW
IRAS Rocket 4.2 19:32:27 10° SSE 19:37:58 79° ENE 19:43:28 10° NNW
Cosmos 1953 2.7 19:34:53 10° SSW 19:38:24 58° W 19:41:58 10° N
Meteor 1-15 Rocket 4.2 19:32:56 10° S 19:38:30 89° ESE 19:44:06 10° N
CZ-4B R/B 3.8 19:35:07 13° SE 19:39:35 39° ENE 19:44:46 10° N
CZ-4B DEB 4.3 19:34:50 10° SSE 19:40:07 55° ENE 19:45:28 10° N
CSL-04 Rocket 3.7 19:34:53 10° SSE 19:40:23 82° ENE 19:45:58 10° NNW
Cosmos 2278 Rocket 3.9 19:41:08 10° N 19:44:54 18° NE 19:47:49 13° E
Cosmos 1610 Rocket 4.5 19:40:40 10° S 19:46:54 65° E 19:53:05 10° NNE
Cosmos 2333 Rocket 3.9 19:42:04 10° WSW 19:47:16 36° NW 19:52:29 10° N
NOSS 3-2 (C) 4.3 19:42:49 10° NNW 19:50:01 56° NE 19:56:23 19° ESE
Iridium 82 4.4 19:47:51 10° N 19:50:51 66° W 19:53:47 10° S
Cosmos 1703 Rocket 3.5 19:51:10 10° N 19:55:29 65° E 19:58:41 17° SSE
Cosmos 1470 Rocket 3.8 19:51:28 10° SSW 19:55:51 70° W 20:00:12 10° N
BREEZE-M DEB (TANK) 3.5 19:53:45 10° WNW 19:56:00 28° N 19:59:33 11° ENE
Spot 2 Rocket 4.5 19:53:55 21° ESE 19:56:02 29° ENE 20:00:19 10° N
Geosat 3.9 19:51:35 10° NNE 19:56:37 83° ESE 20:01:36 10° SSW
Lacrosse 5 rocket 0.5 19:54:15 10° SW 19:57:28 81° SE 20:00:40 10° NE
NOSS 3-2 (A) 4.3 19:50:57 10° NW 19:58:30 74° WSW 20:06:45 13° SSE
ARIANE 6 FM1 Upper Stage 3.9 19:54:47 10° WSW 19:58:45 43° NW 20:02:39 10° NNE
Meteor 2-5 Rocket 4.1 19:54:56 10° NNW 20:00:24 65° W 20:05:54 10° S
ERS-1 Rocket 2.9 19:57:46 17° SSE 20:01:30 65° ENE 20:06:28 10° N
Cosmos 1933 Rocket 3.5 19:59:01 10° S 20:03:17 60° E 20:07:37 10° NNE
Nadezhda 3 Rocket 4.1 19:59:40 10° N 20:05:50 77° W 20:11:57 10° S
Cosmos 2218 Rocket 4.4 20:06:05 21° SE 20:09:37 40° E 20:15:16 10° NNE
Cosmos 1943 Rocket 3.2 20:05:56 10° N 20:10:55 30° NE 20:12:58 24° E
Meteor 1-12 Rocket 4.3 20:06:38 10° S 20:12:36 85° E 20:18:39 10° NNE
Helios 1A Rocket 3.5 20:09:47 10° N 20:12:52 43° WNW 20:15:56 10° SW
YAOGAN 11 4.5 20:09:32 10° NNE 20:13:29 37° E 20:13:55 36° ESE
In-Cosmos 22 Rocket 4.2 20:11:30 10° N 20:16:45 56° ENE 20:19:02 32° SE
OPS 6432 4.1 20:16:18 10° NW 20:19:40 80° NE 20:20:04 65° ESE
Okean-O 3.1 20:20:35 38° E 20:21:22 42° ENE 20:25:30 10° N
Cosmos 494 Rocket 4.0 20:19:38 10° NNW 20:24:45 60° ENE 20:26:29 39° SE
Cosmos 962 Rocket 4.4 20:18:50 10° S 20:25:06 81° E 20:31:19 10° N
Cosmos 2360 Rocket 4.2 20:21:19 10° WSW 20:26:11 29° NW 20:31:06 10° N
CBERS 1 LM4 rocket 4.5 20:24:04 22° S 20:27:06 71° WSW 20:31:49 10° NNW
Cosmos 1869 Rocket 3.4 20:30:47 26° S 20:33:15 90° ENE 20:37:40 10° N
ADEOS 3.7 20:32:48 26° S 20:35:49 74° WSW 20:41:03 10° NNW
Terra 2.0 20:34:16 27° S 20:36:46 66° W 20:41:27 10° NNW
CZ-4 R/B 3.2 20:35:04 10° SSW 20:38:18 26° W 20:41:32 10° NW
BREEZE-M DEB (TANK) 4.3 20:38:21 10° WSW 20:42:13 80° NNW 20:58:03 10° ENE
Okean O Rocket 1.4 20:43:57 67° SE 20:44:28 79° ENE 20:48:51 10° N
Cosmos 2237 Rocket 3.1 20:47:31 32° ENE 20:47:31 32° ENE 20:51:13 10° NE
Cosmos 2242 Rocket 4.2 20:42:31 10° N 20:46:21 42° ENE 20:46:21 42° ENE
Cosmos 1980 4.3 20:47:57 37° ENE 20:47:57 37° ENE 20:52:05 10° NE
SL-08 R/B 3.7 20:44:28 10° N 20:49:19 65° WNW 20:53:56 11° SSW
Cosmos 2322 3.8 20:44:15 10° SSW 20:49:56 76° WNW 20:55:42 10° NNE
CZ-4B R/B 4.1 20:51:35 28° NNE 20:51:35 28° NNE 20:53:39 10° N
ASTEX 1 3.6 20:50:47 50° ENE 20:50:47 50° ENE 20:55:27 10° N
Cosmos 2341 Rocket 4.0 20:46:43 16° S 20:51:53 83° W 20:58:12 10° N
IRS-1A Rocket 4.5 20:52:14 34° S 20:54:41 67° WSW 21:00:18 10° NNW
Meteor 1-21 Rocket 4.1 20:54:05 10° N 20:59:43 87° W 21:01:08 53° S
Cosmos 1680 Rocket 4.1 20:55:59 10° NNW 21:01:01 51° WSW 21:02:37 37° SSW
SPOT 3 Rocket 3.6 21:02:11 57° ENE 21:02:16 57° ENE 21:07:21 10° N
Cosmos 2219 Rocket 4.4 20:58:11 10° WSW 21:02:44 25° NW 21:07:18 10° N
Spot 3 4.5 21:03:36 67° SSE 21:04:22 87° ENE 21:09:44 10° NNW
Meteor 2-14 Rocket 4.4 21:02:09 10° N 21:08:16 82° W 21:09:57 51° S
Meteor 2-21 Rocket 4.4 21:08:35 10° N 21:14:38 60° E 21:14:50 59° E
USA 245 4.2 21:17:15 46° NNW 21:17:15 46° NNW 21:20:31 10° NNW
SL-24 R/B - RUBIN 2 4.3 21:11:56 10° NW 21:16:05 47° WSW 21:16:05 47° WSW
COSMOS 2428 3.5 21:14:16 10° SW 21:19:50 51° WNW 21:25:26 10° NNE
Cosmos 2369 Rocket 4.2 21:17:19 10° N 21:20:24 15° NE 21:20:57 15° NE
NOSS 0 Rocket 4.0 21:16:29 10° SSW 21:22:42 76° WNW 21:28:58 10° NNE
Ariane Rocket 3.2 21:26:52 62° NNE 21:26:52 62° NNE 21:31:11 10° N
Cosmos 1727 Rocket 3.8 21:21:45 10° N 21:28:09 81° E 21:28:33 77° SE
Cosmos 2278 Rocket 2.1 21:24:01 10° NNW 21:29:39 85° W 21:29:39 85° W
USA 238 DEB 4.0 21:23:23 10° NNW 21:30:49 68° NE 21:32:16 58° ESE
USA 238 4.0 21:23:33 10° NNW 21:30:59 68° NE 21:32:26 57° E
Lacrosse 5 rocket 3.8 21:32:27 10° WNW 21:34:04 15° NW 21:34:04 15° NW
Meteor 2-8 Rocket 4.4 21:47:10 81° NNW 21:47:10 81° NNW 21:52:58 10° N
SL-16 R/B 4.3 21:58:05 16° NE 21:58:05 16° NE 21:59:12 10° NE
Cosmos 1943 Rocket 3.0 21:49:25 10° NW 21:54:29 43° W 21:54:29 43° W
SeaSat 1 3.6 21:59:30 37° N 21:59:30 37° N 22:02:44 10° NNW
Cosmos 1934 Rocket 4.3 22:03:44 60° NNE 22:03:44 60° NNE 22:08:50 10° N
Cosmos 2123 Rocket 4.1 21:58:25 10° N 22:03:50 68° N 22:03:50 68° N
USA 59 Rocket 2.6 22:02:15 10° NNW 22:02:48 14° NNW 22:02:48 14° NNW
NOSS 3-4 (A) 3.9 22:10:28 49° NW 22:10:28 49° NW 22:15:50 10° NNE
NOSS 3-4 (C) 3.9 22:11:02 49° NW 22:11:02 49° NW 22:16:22 10° NNE
Cosmos 2237 Rocket 3.6 22:29:12 33° WNW 22:30:04 34° NW 22:35:15 10° N
Cosmos 2369 Rocket 3.7 22:59:43 10° NNW 23:02:43 33° NNW 23:02:43 33° NNW
SJ 16-02 4.4 23:33:01 10° N 23:33:16 11° N 23:33:16 11° N
SL-16 R/B 3.9 23:39:53 29° NNW 23:39:53 29° NNW 23:43:17 10° N
CZ-2C R/B 4.4 23:44:18 29° NNE 23:44:18 29° NNE 23:47:09 10° N
ACS3 Solar Sail 4.1 23:39:29 10° ENE 23:40:25 12° ENE 23:40:25 12° ENE
